{"data":{"norad_id":57800,"epoch":"2026-05-25T02:10:47.856288Z","epoch_age_seconds":77879,"freshness":"FRESH","line1":"1 57800U 23137A   26145.09083167  .00003611  00000+0  19831-3 0  9993","line2":"2 57800  31.0009 149.1850 0007553  91.7958 268.3545 15.12228611149367","mean_motion":15.12228611,"eccentricity":0.0007553,"inclination_deg":31.0009,"raan_deg":149.185,"arg_perigee_deg":91.7958,"mean_anomaly_deg":268.3545,"bstar":0.00019831,"rev_number":14936,"period_min":95.223697629141,"perigee_km":524.18784023407,"apogee_km":534.62237334058,"semimajor_km":6907.5421067873,"source":"CELESTRAK","updated_at":"2026-05-25T13:38:00.272595Z"}}